SWR80K LEPA-LSZH

Flight info

Callsign SWR80K
Flight time N/A
Altitude 31000
Route MEROS DCT LAPIT DCT CHELY DCT LUMAS DCT MAXIR DCT LUSOL DCT BODRU DCT OKTET/N0424F320 DCT IRMAR DCT KINES DCT VANAS DCT MOBLO DCT LAMUR DCT GUDAX Z57 DOPIL
Aircraft A343/H-SDE2E3FGHIJ4J5M1P2RWXYZ/LB1D1

Departure

Time N/A
Airport Palma de Mallorca Airport (LEPA)

Arrival

Time 2026-04-26 11:31
Airport Zürich Airport (LSZH)
Time Latitude Longitude Altitude Speed Heading
2026-04-26 10:10 39.77135 3.94559 31150 ft 454 kts 66°
2026-04-26 10:10 39.78399 3.98246 31160 ft 440 kts 66°
2026-04-26 10:10 39.79628 4.01839 31158 ft 433 kts 66°
2026-04-26 10:11 39.82069 4.08990 31160 ft 432 kts 66°
2026-04-26 10:11 39.84582 4.16088 31155 ft 433 kts 60°
2026-04-26 10:12 39.86403 4.19197 31157 ft 433 kts 45°
2026-04-26 10:12 39.88782 4.21492 31156 ft 433 kts 28°
2026-04-26 10:12 39.91613 4.22826 31161 ft 434 kts 13°
2026-04-26 10:12 39.94576 4.23601 31159 ft 435 kts 11°
2026-04-26 10:13 40.00548 4.24976 31159 ft 436 kts 11°
2026-04-26 10:13 40.06513 4.26362 31164 ft 435 kts 11°
2026-04-26 10:14 40.12478 4.27762 31170 ft 435 kts 11°
2026-04-26 10:14 40.18398 4.29157 31170 ft 435 kts 11°
2026-04-26 10:15 40.24357 4.30565 31174 ft 435 kts 11°
2026-04-26 10:15 40.30310 4.31975 31170 ft 435 kts 11°
2026-04-26 10:16 40.36261 4.33386 31174 ft 435 kts 11°
2026-04-26 10:16 40.42180 4.34793 31171 ft 435 kts 11°
2026-04-26 10:17 40.48146 4.36213 31172 ft 436 kts 11°
2026-04-26 10:17 40.54112 4.37640 31173 ft 436 kts 11°
2026-04-26 10:18 40.60081 4.39065 31175 ft 436 kts 11°
2026-04-26 10:18 40.66054 4.40492 31172 ft 436 kts 11°
2026-04-26 10:19 40.71984 4.41913 31172 ft 436 kts 11°
2026-04-26 10:19 40.77951 4.43346 31173 ft 436 kts 11°
2026-04-26 10:20 40.82912 4.44540 31172 ft 436 kts 11°
2026-04-26 10:20 40.89891 4.46222 31169 ft 436 kts 10°
2026-04-26 10:21 40.95818 4.47660 31174 ft 436 kts 10°
2026-04-26 10:21 41.01788 4.49108 31168 ft 436 kts 10°
2026-04-26 10:22 41.07759 4.50558 31169 ft 436 kts 10°
2026-04-26 10:22 41.13737 4.52009 31170 ft 437 kts 10°
2026-04-26 10:23 41.19679 4.53460 31168 ft 437 kts 10°
2026-04-26 10:23 41.25659 4.54923 31168 ft 437 kts 10°
2026-04-26 10:24 41.31640 4.56387 31169 ft 437 kts
2026-04-26 10:24 41.37616 4.57852 31164 ft 436 kts 10°
2026-04-26 10:25 41.43574 4.59315 31162 ft 435 kts 10°
2026-04-26 10:25 41.49480 4.60770 31163 ft 435 kts
2026-04-26 10:26 41.55430 4.62238 31159 ft 435 kts
2026-04-26 10:26 41.61384 4.63709 31158 ft 435 kts
2026-04-26 10:27 41.67337 4.65182 31159 ft 435 kts
2026-04-26 10:27 41.73175 4.67094 31158 ft 437 kts 20°
2026-04-26 10:28 41.78583 4.70816 31153 ft 438 kts 28°
2026-04-26 10:28 41.83829 4.74995 31154 ft 439 kts 30°
2026-04-26 10:29 41.89045 4.79251 31153 ft 439 kts 30°
2026-04-26 10:29 41.94267 4.83494 31149 ft 439 kts 30°
2026-04-26 10:30 41.99466 4.87702 31149 ft 439 kts 30°
2026-04-26 10:30 42.04704 4.91940 31149 ft 439 kts 30°
2026-04-26 10:31 42.09938 4.96184 31149 ft 439 kts 30°
2026-04-26 10:31 42.15177 5.00441 31143 ft 440 kts 30°
2026-04-26 10:32 42.20381 5.04679 31140 ft 440 kts 30°
2026-04-26 10:32 42.25622 5.08954 31141 ft 440 kts 30°
2026-04-26 10:33 42.30858 5.13235 31142 ft 440 kts 30°
2026-04-26 10:33 42.36105 5.17533 31139 ft 441 kts 30°
2026-04-26 10:34 42.41322 5.21814 31135 ft 441 kts 30°
2026-04-26 10:34 42.46570 5.26130 31135 ft 441 kts 30°
2026-04-26 10:35 42.51820 5.30456 31139 ft 442 kts 30°
2026-04-26 10:35 42.57082 5.34800 31132 ft 443 kts 30°
2026-04-26 10:36 42.62337 5.39148 31135 ft 442 kts 30°
2026-04-26 10:36 42.67551 5.43470 31135 ft 442 kts 30°
2026-04-26 10:37 42.72799 5.47829 31141 ft 442 kts 30°
2026-04-26 10:37 42.78042 5.52192 31138 ft 442 kts 30°
2026-04-26 10:38 42.83287 5.56566 31141 ft 442 kts 30°
2026-04-26 10:38 42.88527 5.60945 31144 ft 442 kts 30°
2026-04-26 10:39 42.93736 5.65307 31143 ft 442 kts 30°
2026-04-26 10:39 42.98979 5.69706 31144 ft 443 kts 30°
2026-04-26 10:40 43.04222 5.74115 31145 ft 442 kts 30°
2026-04-26 10:40 43.09453 5.78522 31147 ft 442 kts 30°
2026-04-26 10:41 43.14691 5.82944 31146 ft 443 kts 30°
2026-04-26 10:41 43.19895 5.87346 31144 ft 443 kts 30°
2026-04-26 10:42 43.25139 5.91789 31143 ft 443 kts 30°
2026-04-26 10:42 43.30383 5.96242 31145 ft 444 kts 30°
2026-04-26 10:43 43.35638 6.00704 31138 ft 444 kts 29°
2026-04-26 10:43 43.41265 6.03865 31134 ft 439 kts 10°
2026-04-26 10:44 43.47293 6.04923 31143 ft 436 kts
2026-04-26 10:44 43.53349 6.05532 31129 ft 437 kts
2026-04-26 10:45 43.59415 6.06083 31123 ft 437 kts
2026-04-26 10:45 43.65482 6.06668 31129 ft 437 kts
2026-04-26 10:46 43.71511 6.07273 31121 ft 438 kts
2026-04-26 10:46 43.77541 6.08579 31110 ft 442 kts 15°
2026-04-26 10:47 43.83229 6.11893 31107 ft 445 kts 23°
2026-04-26 10:47 43.88789 6.15664 31112 ft 445 kts 24°
2026-04-26 10:48 43.94292 6.19484 31114 ft 446 kts 24°
2026-04-26 10:48 43.99849 6.23318 31111 ft 446 kts 24°
2026-04-26 10:49 44.05407 6.27134 31120 ft 446 kts 24°
2026-04-26 10:49 44.10972 6.30955 31115 ft 446 kts 24°
2026-04-26 10:50 44.15601 6.34139 31109 ft 447 kts 24°
2026-04-26 10:50 44.22070 6.38600 31107 ft 447 kts 24°
2026-04-26 10:51 44.30426 6.44379 31111 ft 447 kts 24°
2026-04-26 10:52 44.36006 6.48248 31112 ft 447 kts 24°
2026-04-26 10:52 44.41578 6.52119 31112 ft 447 kts 24°
2026-04-26 10:53 44.47109 6.55967 31118 ft 447 kts 24°
2026-04-26 10:53 44.52685 6.59853 31119 ft 448 kts 24°
2026-04-26 10:54 44.61055 6.65713 31125 ft 448 kts 24°
2026-04-26 10:54 44.66629 6.69627 31132 ft 448 kts 24°
2026-04-26 10:55 44.72174 6.73524 31134 ft 448 kts 24°
2026-04-26 10:55 44.76832 6.76700 31135 ft 447 kts 19°
2026-04-26 10:56 44.80798 6.78328 31133 ft 442 kts
2026-04-26 10:56 44.83853 6.78695 31136 ft 439 kts 358°
2026-04-26 10:56 44.89959 6.78516 31138 ft 439 kts 355°
2026-04-26 10:57 44.96018 6.78068 31144 ft 439 kts 354°
2026-04-26 10:57 45.02115 6.77606 31145 ft 439 kts 354°
2026-04-26 10:58 45.08223 6.77180 31151 ft 440 kts 354°
2026-04-26 10:58 45.14336 6.76774 31149 ft 440 kts 355°
2026-04-26 10:59 45.20409 6.76374 31157 ft 440 kts 354°
2026-04-26 10:59 45.26519 6.75969 31160 ft 439 kts 354°
2026-04-26 11:00 45.32625 6.75564 31161 ft 439 kts 354°
2026-04-26 11:00 45.38731 6.75156 31168 ft 439 kts 354°
2026-04-26 11:01 45.44795 6.74748 31162 ft 439 kts 354°
2026-04-26 11:01 45.50897 6.74343 31170 ft 439 kts 354°
2026-04-26 11:02 45.56999 6.73925 31169 ft 439 kts 354°
2026-04-26 11:02 45.63108 6.73504 31169 ft 440 kts 354°
2026-04-26 11:03 45.69179 6.73082 31152 ft 439 kts 354°
2026-04-26 11:03 45.75285 6.72659 31160 ft 439 kts 354°
2026-04-26 11:04 45.81398 6.73145 31166 ft 445 kts 11°
2026-04-26 11:04 45.87231 6.76219 31158 ft 448 kts 21°
2026-04-26 11:05 45.92919 6.79917 31160 ft 449 kts 22°
2026-04-26 11:05 45.98547 6.83683 31168 ft 449 kts 22°
2026-04-26 11:06 46.03299 6.86839 31166 ft 449 kts 22°
2026-04-26 11:06 46.07078 6.89330 30957 ft 459 kts 22°
2026-04-26 11:06 46.10022 6.91263 30876 ft 469 kts 22°
2026-04-26 11:07 46.15727 6.95866 30737 ft 471 kts 34°
2026-04-26 11:07 46.18342 6.98709 30485 ft 470 kts 36°
2026-04-26 11:07 46.20887 7.01571 30256 ft 470 kts 36°
2026-04-26 11:08 46.23454 7.04483 29970 ft 468 kts 37°
2026-04-26 11:08 46.26007 7.07390 29672 ft 466 kts 37°
2026-04-26 11:08 46.28547 7.10288 29399 ft 464 kts 37°
2026-04-26 11:08 46.31074 7.13177 29114 ft 462 kts 37°
2026-04-26 11:09 46.33587 7.16052 28851 ft 459 kts 37°
2026-04-26 11:09 46.36086 7.18916 28578 ft 457 kts 37°
2026-04-26 11:09 46.38537 7.21729 28314 ft 456 kts 37°
2026-04-26 11:09 46.41015 7.24576 28052 ft 454 kts 37°
2026-04-26 11:10 46.43487 7.27419 27778 ft 452 kts 37°
2026-04-26 11:10 46.45948 7.30251 27524 ft 451 kts 37°
2026-04-26 11:10 46.48399 7.33076 27264 ft 449 kts 37°
2026-04-26 11:10 46.50829 7.35881 26929 ft 444 kts 37°
2026-04-26 11:11 46.53233 7.38660 26428 ft 440 kts 37°
2026-04-26 11:11 46.55617 7.41419 25901 ft 437 kts 37°
2026-04-26 11:11 46.57985 7.44161 25371 ft 435 kts 37°
2026-04-26 11:11 46.60319 7.46867 24835 ft 433 kts 37°
2026-04-26 11:12 46.62665 7.49591 24305 ft 432 kts 37°
2026-04-26 11:12 46.65012 7.52309 23827 ft 428 kts 36°
2026-04-26 11:12 46.67435 7.54727 23634 ft 417 kts 31°
2026-04-26 11:12 46.69885 7.56977 23366 ft 417 kts 30°
2026-04-26 11:13 46.72354 7.59204 23097 ft 417 kts 30°
2026-04-26 11:13 46.74818 7.61411 22829 ft 415 kts 30°
2026-04-26 11:13 46.77276 7.63604 22563 ft 413 kts 30°
2026-04-26 11:13 46.79722 7.65786 22299 ft 411 kts 30°
2026-04-26 11:14 46.82131 7.67935 22044 ft 410 kts 30°
2026-04-26 11:14 46.84556 7.70098 21772 ft 408 kts 30°
2026-04-26 11:14 46.86973 7.72255 21519 ft 406 kts 30°
2026-04-26 11:14 46.88566 7.73677 21353 ft 405 kts 30°
2026-04-26 11:15 46.91776 7.76548 21013 ft 403 kts 30°
2026-04-26 11:15 46.94161 7.78683 20771 ft 402 kts 29°
2026-04-26 11:15 46.96550 7.80822 20527 ft 401 kts 29°
2026-04-26 11:15 46.98916 7.82944 20208 ft 396 kts 29°
2026-04-26 11:16 47.01227 7.85019 19752 ft 394 kts 30°
2026-04-26 11:16 47.03558 7.87116 19263 ft 392 kts 29°
2026-04-26 11:16 47.05877 7.89201 18773 ft 391 kts 29°
2026-04-26 11:16 47.08186 7.91281 18259 ft 389 kts 29°
2026-04-26 11:17 47.10487 7.93356 17731 ft 386 kts 29°
2026-04-26 11:17 47.12768 7.95413 17216 ft 384 kts 30°
2026-04-26 11:17 47.15038 7.97466 16612 ft 384 kts 29°
2026-04-26 11:17 47.17316 7.99525 16013 ft 384 kts 30°
2026-04-26 11:18 47.19555 8.01552 15509 ft 382 kts 29°
2026-04-26 11:18 47.21805 8.03591 15017 ft 379 kts 30°
2026-04-26 11:18 47.24038 8.05612 14512 ft 376 kts 30°
2026-04-26 11:18 47.26260 8.07631 14023 ft 374 kts 30°
2026-04-26 11:19 47.28471 8.09642 13489 ft 371 kts 30°
2026-04-26 11:19 47.30655 8.11632 13005 ft 368 kts 30°
2026-04-26 11:19 47.32825 8.13609 12513 ft 365 kts 31°
2026-04-26 11:19 47.34972 8.15563 12033 ft 362 kts 31°
2026-04-26 11:20 47.37108 8.17513 11557 ft 360 kts 31°
2026-04-26 11:20 47.38512 8.18795 11247 ft 358 kts 31°
2026-04-26 11:20 47.41331 8.21373 10594 ft 354 kts 31°
2026-04-26 11:20 47.43367 8.23235 10390 ft 342 kts 31°
2026-04-26 11:21 47.45310 8.25013 10259 ft 314 kts 31°
2026-04-26 11:21 47.47096 8.26649 10143 ft 291 kts 31°
2026-04-26 11:21 47.48867 8.27933 9986 ft 280 kts 17°
2026-04-26 11:21 47.50780 8.28221 9803 ft 278 kts 353°
2026-04-26 11:22 47.52599 8.27308 9488 ft 279 kts 328°
2026-04-26 11:22 47.54124 8.25515 9179 ft 282 kts 317°
2026-04-26 11:22 47.55557 8.23514 8850 ft 284 kts 317°
2026-04-26 11:22 47.56974 8.21518 8550 ft 285 kts 317°
2026-04-26 11:23 47.58414 8.19510 8245 ft 284 kts 317°
2026-04-26 11:23 47.59987 8.17780 8014 ft 279 kts 334°
2026-04-26 11:23 47.61800 8.17089 7807 ft 262 kts
2026-04-26 11:23 47.63515 8.17564 7542 ft 244 kts 25°
2026-04-26 11:24 47.64888 8.18918 7214 ft 234 kts 46°
2026-04-26 11:24 47.65952 8.20711 6789 ft 231 kts 52°
2026-04-26 11:24 47.66797 8.22718 6412 ft 230 kts 68°
2026-04-26 11:24 47.67116 8.25015 6312 ft 226 kts 90°
2026-04-26 11:25 47.66845 8.27239 6241 ft 221 kts 110°
2026-04-26 11:25 47.66054 8.29150 6146 ft 217 kts 130°
2026-04-26 11:25 47.64979 8.30715 5969 ft 217 kts 136°
2026-04-26 11:25 47.63844 8.32231 5667 ft 221 kts 136°
2026-04-26 11:26 47.62731 8.33764 5331 ft 215 kts 135°
2026-04-26 11:26 47.61656 8.35242 5038 ft 208 kts 135°
2026-04-26 11:26 47.60604 8.36687 4750 ft 202 kts 135°
2026-04-26 11:26 47.59596 8.38066 4452 ft 192 kts 135°
2026-04-26 11:27 47.58641 8.39370 4192 ft 181 kts 133°
2026-04-26 11:27 47.57739 8.40605 3985 ft 179 kts 134°
2026-04-26 11:27 47.56830 8.41846 3733 ft 178 kts 133°
2026-04-26 11:27 47.55917 8.43097 3514 ft 179 kts 134°
2026-04-26 11:28 47.55014 8.44330 3240 ft 174 kts 135°
2026-04-26 11:28 47.54152 8.45510 3022 ft 162 kts 135°
2026-04-26 11:28 47.53362 8.46586 2811 ft 148 kts 134°
2026-04-26 11:28 47.52632 8.47579 2633 ft 139 kts 134°
2026-04-26 11:29 47.51934 8.48525 2389 ft 133 kts 133°
2026-04-26 11:29 47.51253 8.49453 2211 ft 133 kts 133°
2026-04-26 11:29 47.50549 8.50384 2062 ft 138 kts 131°
2026-04-26 11:29 47.49855 8.51343 1877 ft 136 kts 129°
2026-04-26 11:30 47.49182 8.52296 1707 ft 136 kts 131°
2026-04-26 11:30 47.48706 8.52934 1594 ft 136 kts 134°
2026-04-26 11:30 47.47781 8.54167 1408 ft 129 kts 130°
2026-04-26 11:30 47.47265 8.54897 1403 ft 77 kts 137°
2026-04-26 11:31 47.46960 8.55317 1405 ft 54 kts 136°
2026-04-26 11:31 47.46715 8.55618 1408 ft 31 kts 153°
2026-04-26 11:31 47.46577 8.55685 1407 ft 19 kts 166°
2026-04-26 11:31 47.46448 8.55729 1409 ft 16 kts 166°
2026-04-26 11:32 47.46351 8.55799 1411 ft 15 kts 141°
2026-04-26 11:32 47.46276 8.55901 1414 ft 14 kts 137°
2026-04-26 11:32 47.46202 8.55990 1416 ft 13 kts 155°
2026-04-26 11:32 47.46115 8.55993 1413 ft 13 kts 186°
2026-04-26 11:33 47.46021 8.55979 1411 ft 15 kts 185°
2026-04-26 11:33 47.45939 8.55919 1416 ft 12 kts 253°
2026-04-26 11:33 47.45944 8.55787 1408 ft 15 kts 276°
2026-04-26 11:33 47.45956 8.55622 1406 ft 16 kts 276°
2026-04-26 11:34 47.45971 8.55534 1414 ft 5 kts 316°
2026-04-26 11:34 47.46027 8.55525 1410 ft 9 kts
2026-04-26 11:34 47.46049 8.55528 1411 ft 0 kts